Regional Weather Roundup
Issued by NWS

Home | Current Version | Previous Version | Text Only | Print | Product List | Glossary On
Versions: 1 2 3 4 5 6 7 8 9 10 11 12 13 14 15 16 17 18 19 20 21 22 23 24 25 26 27 28 29 30 31 32 33 34 35 36 37 38 39 40 41 42 43 44 45 46 47 48 49 50
000
ASUS43 KMKX 162300
RWRWI

WISCONSIN REGIONAL WEATHER ROUNDUP
NATIONAL WEATHER SERVICE MILWAUKEE/SULLIVAN WI
500 PM CST SAT DEC 16 2017

NOTE: "FAIR" INDICATES FEW OR NO CLOUDS BELOW 12,000 FEET WITH NO
SIGNIFICANT WEATHER AND/OR OBSTRUCTIONS TO VISIBILITY.

WIZ001-002-006>008-014>016-023>028-170000-
NORTHWEST WISCONSIN

CITY           SKY/WX    TMP DP  RH WIND       PRES   REMARKS
SUPERIOR ARPT  CLOUDY    22  11  63 E7        30.05R WCI  14
ASHLAND        CLOUDY    21  12  68 E3        30.07R
HAYWARD        CLOUDY    20  12  71 SE7       30.02R WCI  11
SIREN          CLOUDY    23  16  74 CALM      30.02R
CUMBERLAND     CLOUDY    21  14  73 E3        30.00R
RICE LAKE      CLOUDY    23  16  74 CALM      30.03R
CHETEK         CLOUDY    22  15  75 E5        30.03R WCI  16
LADYSMITH      CLOUDY    23  14  69 E7        30.03R WCI  14
EAU CLAIRE     NOT AVBL
MENOMONIE      PTCLDY    25  18  74 N5        30.03R WCI  19
NEW RICHMOND   CLOUDY    25  17  72 CALM      30.02R
OSCEOLA        CLOUDY    26  19  73 E5        30.04R WCI  20
$$

WIZ003>005-009-010-017-018-170000-
NORTH CENTRAL WISCONSIN

CITY           SKY/WX    TMP DP  RH WIND       PRES   REMARKS
MANITOWISH WTR CLOUDY    18  10  70 SE3       30.01R
ARBOR VITAE    CLOUDY    19  10  67 SE5       30.02R WCI  12
WOODRUFF       CLOUDY    19  10  67 SE5       30.02R WCI  12
RHINELANDER    CLOUDY    18  10  71 E6        30.03R WCI  10
EAGLE RIVER    CLOUDY    19   9  66 CALM      30.01R
LAND O LAKES   CLOUDY    19  11  71 CALM      30.04R
PHILLIPS       CLOUDY    18  10  72 E6        30.01R WCI   9
TOMAHAWK       CLOUDY    18  11  76 CALM      30.03R
MEDFORD        CLOUDY    20  14  76 E7        30.01R WCI  11
MERRILL        CLOUDY    21  14  74 E3        30.03R
$$

WIZ029-030-035-036-043>047-170000-
CENTRAL WISCONSIN

CITY           SKY/WX    TMP DP  RH WIND       PRES   REMARKS
WAUSAU         CLOUDY    21  15  78 E6        30.03R WCI  13
MOSINEE        CLOUDY    21  18  86 E9        30.03R WCI  11
MARSHFIELD     CLOUDY    22  18  85 E9        30.02R WCI  12
STEVENS POINT  CLOUDY    21  16  79 NE7       30.03R WCI  13
WAUPACA        CLOUDY    27  18  71 NE5       30.03R WCI  21
WAUTOMA        CLOUDY    25  19  78 NE6       30.03R WCI  18
WISC RAPIDS    CLOUDY    23  16  74 E6        30.05R WCI  16
CAMP DOUGLAS   CLOUDY    27  25  92 E6        30.01R WCI  20
$$

WIZ011>013-019>022-031-037>040-048>050-170000-
NORTHEAST WISCONSIN

CITY           SKY/WX    TMP DP  RH WIND       PRES   REMARKS
ANTIGO         CLOUDY    19  16  86 E9        30.03R WCI   8
SHAWANO        CLOUDY    24  19  80 NE6       30.06R WCI  17
OCONTO         CLOUDY    24  20  85 N6        30.08R WCI  17
STURGEON BAY   CLOUDY    26  22  84 NE10      30.08R WCI  16
GREEN BAY      MOCLDY    23  17  78 N8        30.06R WCI  14
MANITOWOC      CLOUDY    27  21  78 NE3       30.06R
APPLETON       CLOUDY    27  18  69 NE7       30.02R WCI  19
CLINTONVILLE   CLOUDY    25  18  74 NE7       30.06R WCI  17
OSHKOSH        CLOUDY    28  22  78 E7        30.03R WCI  21
$$

WIZ032>034-041-042-053>061-170000-
SOUTHWEST WISCONSIN

CITY           SKY/WX    TMP DP  RH WIND       PRES   REMARKS
LA CROSSE      PTCLDY    29  21  72 NE5       30.01R WCI  24
SPARTA         CLOUDY    27  24  87 E9        30.01R WCI  18
VIROQUA        PTCLDY    27  25  91 CALM      29.95R
BOSCOBEL       CLEAR     34  25  69 VRB3      29.99R
PRAIRIE DU CHI CLEAR     38  25  57 SE5       29.95R WCI  35
PLATTEVILLE    CLEAR     40  26  58 NE3       29.94R
$$

WIZ056-057-062-063-064-067-068-170000-
SOUTH CENTRAL WISCONSIN

CITY           SKY/WX    TMP DP  RH WIND       PRES   REMARKS
REEDSBURG      CLOUDY    28  26  96 NE5       29.98R WCI  22
BARABOO/DELLS  CLOUDY    27  25  90 NE9       29.98R WCI  18
LONE ROCK      MOCLDY    32  27  81 NE5       29.99R WCI  27
MINERAL POINT  CLEAR     37  28  70 NE8       29.94R WCI  31
MADISON        CLOUDY    32  29  88 E10       30.00R WCI  24
MIDDLETON      CLOUDY    34  31  87 E9        29.98R WCI  27
WATERTOWN      CLOUDY    32  32 100 E9        29.98R WCI  24
MONROE         CLEAR     37  27  65 NE5       29.93R WCI  34
JANESVILLE     CLEAR     34  23  64 SE8       29.95R WCI  27
$$

WIZ051-052-058>065-066-070>072-170000-
SOUTHEAST WISCONSIN

CITY           SKY/WX    TMP DP  RH WIND       PRES   REMARKS
MILWAUKEE      CLOUDY    37  33  85 NE13      29.99R WCI  29
WAUKESHA       CLOUDY    30  28  93 NE9       29.99R WCI  22
MILWAUKEE/TIMM CLOUDY    34  28  80 NE7       30.01R WCI  28
RACINE         CLEAR     33  27  78 CALM      30.01R
BURLINGTON     CLEAR     48  47  94 NE7       29.97R
KENOSHA        CLEAR     33  25  72 NE6       29.99R WCI  28
FOND DU LAC    CLOUDY    30  21  69 E7        30.03R WCI  23
SHEBOYGAN      CLOUDY    29  23  78 NE9       30.02R WCI  20
WEST BEND      CLOUDY    30  28  93 NE8       30.00R WCI  23
JUNEAU         CLOUDY    29  26  89 NE10      30.00R WCI  20
$$

LSZ147-162-170000-
LAKE SUPERIOR

STATION/POSITION TIME  TEMP    WIND        PRES    WAVE
                       AIR SEA DIR/SP/G            HT/PER
                 (UTC) (F)     (DEG/KT/KT) (MB)    (FT/S)
DEVILS ISLAND    2200   25      90/ 13/ 15 1019.0R
SAXON HARBOR     2240   23                 1017.6R
$$

LMZ867-665-643>646-170000-
LAKE MICHIGAN

STATION/POSITION TIME  TEMP    WIND        PRES    WAVE
                       AIR SEA DIR/SP/G            HT/PER
                 (UTC) (F)     (DEG/KT/KT) (MB)    (FT/S)
NORTHPORT PIER   2240   25      90/ 11/ 15 1019.3R
KEWAUNEE LAKESHO 2230   29      80/  8/ 11 1016.8R
SHEBOYGAN LAKESH 2200   31      50/ 15/ 16 1017.1R
PORT WASHINGTON  2230   34      50/ 10/ 12 1017.3R
MILWAUKEE LAKESH 2230   35      50/ 13/ 15   N/A
KENOSHA   LAKESH 2200   36      30/  6/  6 1014.6
$$

TC  - TEMPERATURE IN CELSIUS
VSB - VISIBILITY IN STATUTE MILES
WCI - WIND CHILL INDEX
HX  - HEAT INDEX





USA.gov is the U.S. government's official web portal to all federal, state and local government web resources and services.